BADR-5

Last updated on Thu Jul 03 2025 00:02:45 GMT+0000 (Coordinated Universal Time)

1 36592U 10025A 25183.57179111 .00000152 00000+0 00000+0 0 9990 2 36592 0.0516 117.3153 0005215 7.3911 27.9771 1.00270718 49714
UTC large
Height (km)
Speed (km/s)
/
Latitude / Longitude
Inclination (degrees)
Orbital Period (minutes)
Azimuth
Elevation
Range (km)
Doppler Factor

Next 0 passes for location: London (51.5072 / 0.1276)

Sorry there are no passes over London.